When you browse on this site, cookies collect data to enhance your experience and personalize the content and advertising you see.
Visit our Privacy Policy to learn more. By continuing to use the site, you agree to this use of cookies and data.
  • In Latvia
  • List of Countries
  • For 7 days
  • Water Temperature
  • Weather Map
  • Weather Widgets
  • user-avatar
    Login

    Hourly Weather Kundryuchenskiy

    Today, 22 August, Thursday

    Time Temperature Precipitation Wind Pressure Humidity
    00:00 +29°C° 0 mm 6 mps 749 mmHg 31%
    01:00 +28°C° 0 mm 5 mps 749 mmHg 34%
    02:00 +27°C° 0 mm 5 mps 749 mmHg 38%
    03:00 +26°C° 0 mm 4 mps 749 mmHg 41%
    04:00 +26°C° 0 mm 4 mps 749 mmHg 43%
    05:00 +25°C° 0 mm 4 mps 749 mmHg 46%
    06:00 +25°C° 0 mm 4 mps 749 mmHg 48%
    07:00 +27°C° 0 mm 4 mps 749 mmHg 44%
    08:00 +30°C° 0 mm 4 mps 749 mmHg 40%
    09:00 +33°C° 0 mm 5 mps 750 mmHg 35%
    10:00 +35°C° 0 mm 5 mps 749 mmHg 30%
    11:00 +37°C° 0 mm 5 mps 749 mmHg 25%
    12:00 +39°C° 0 mm 6 mps 749 mmHg 20%
    13:00 +40°C° 0 mm 5 mps 749 mmHg 19%
    14:00 +40°C° 0 mm 5 mps 749 mmHg 18%
    15:00 +41°C° 0 mm 5 mps 748 mmHg 17%
    16:00 +40°C° 0 mm 5 mps 748 mmHg 19%
    17:00 +38°C° 0 mm 4 mps 748 mmHg 21%
    18:00 +37°C° 0 mm 4 mps 748 mmHg 22%
    19:00 +35°C° 0 mm 4 mps 748 mmHg 26%
    20:00 +33°C° 0 mm 5 mps 748 mmHg 31%
    21:00 +30°C° 0 mm 5 mps 748 mmHg 35%
    22:00 +30°C° 0 mm 6 mps 749 mmHg 35%
    23:00 +30°C° 0 mm 6 mps 749 mmHg 35%

    Tomorrow, 23 August, Friday

    Time Temperature Precipitation Wind Pressure Humidity
    00:00 +30°C° 0 mm 6 mps 749 mmHg 35%
    01:00 +29°C° 0 mm 5 mps 749 mmHg 36%
    02:00 +28°C° 0 mm 5 mps 749 mmHg 38%
    03:00 +28°C° 0 mm 4 mps 749 mmHg 39%
    04:00 +27°C° 0 mm 4 mps 749 mmHg 41%
    05:00 +26°C° 0 mm 4 mps 749 mmHg 42%
    06:00 +26°C° 0 mm 4 mps 749 mmHg 44%
    07:00 +27°C° 0 mm 4 mps 749 mmHg 41%
    08:00 +29°C° 0 mm 4 mps 749 mmHg 38%
    09:00 +32°C° 0 mm 4 mps 750 mmHg 34%
    10:00 +34°C° 0 mm 4 mps 750 mmHg 30%
    11:00 +36°C° 0 mm 4 mps 749 mmHg 25%
    12:00 +38°C° 0 mm 4 mps 749 mmHg 20%
    13:00 +38°C° 0 mm 4 mps 749 mmHg 18%
    14:00 +40°C° 0 mm 4 mps 749 mmHg 17%
    15:00 +40°C° 0 mm 4 mps 749 mmHg 15%
    16:00 +38°C° 0 mm 4 mps 749 mmHg 16%
    17:00 +37°C° 0 mm 3 mps 748 mmHg 18%
    18:00 +36°C° 0 mm 3 mps 748 mmHg 20%
    19:00 +35°C° 0 mm 4 mps 749 mmHg 23%
    20:00 +34°C° 0 mm 6 mps 749 mmHg 26%
    21:00 +32°C° 0 mm 7 mps 749 mmHg 30%
    22:00 +32°C° 0 mm 7 mps 749 mmHg 31%
    23:00 +32°C° 0 mm 7 mps 749 mmHg 32%

    Day after tomorrow, 24 August, Saturday

    Time Temperature Precipitation Wind Pressure Humidity
    00:00 +30°C° 0 mm 7 mps 749 mmHg 34%
    01:00 +30°C° 0 mm 6 mps 749 mmHg 35%
    02:00 +29°C° 0 mm 6 mps 749 mmHg 35%
    03:00 +29°C° 0 mm 6 mps 749 mmHg 36%
    04:00 +28°C° 0 mm 6 mps 749 mmHg 38%
    05:00 +27°C° 0 mm 6 mps 749 mmHg 39%
    06:00 +27°C° 0 mm 5 mps 749 mmHg 41%
    07:00 +28°C° 0 mm 5 mps 749 mmHg 38%
    08:00 +30°C° 0 mm 5 mps 749 mmHg 34%
    09:00 +32°C° 0 mm 5 mps 750 mmHg 31%
    10:00 +34°C° 0 mm 5 mps 749 mmHg 27%
    11:00 +36°C° 0 mm 5 mps 749 mmHg 24%
    12:00 +39°C° 0 mm 5 mps 749 mmHg 20%
    13:00 +39°C° 0 mm 5 mps 749 mmHg 19%
    14:00 +40°C° 0 mm 5 mps 749 mmHg 18%
    15:00 +40°C° 0 mm 4 mps 749 mmHg 17%
    16:00 +38°C° 0 mm 4 mps 749 mmHg 18%
    17:00 +36°C° 0 mm 4 mps 749 mmHg 20%
    18:00 +35°C° 0 mm 4 mps 749 mmHg 21%
    19:00 +34°C° 0 mm 5 mps 749 mmHg 24%
    20:00 +33°C° 0 mm 6 mps 749 mmHg 27%
    21:00 +32°C° 0 mm 7 mps 749 mmHg 30%
    22:00 +32°C° 0 mm 7 mps 749 mmHg 31%
    23:00 +30°C° 0 mm 6 mps 749 mmHg 32%

    25 August, Sunday

    Time Temperature Precipitation Wind Pressure Humidity
    00:00 +30°C° 0 mm 6 mps 749 mmHg 34%
    01:00 +29°C° 0 mm 5 mps 749 mmHg 35%
    02:00 +28°C° 0 mm 5 mps 749 mmHg 37%
    03:00 +28°C° 0 mm 5 mps 749 mmHg 38%
    04:00 +27°C° 0 mm 5 mps 749 mmHg 40%
    05:00 +27°C° 0 mm 5 mps 749 mmHg 42%
    06:00 +26°C° 0 mm 5 mps 749 mmHg 44%
    07:00 +27°C° 0.2 mm 5 mps 749 mmHg 45%
    08:00 +27°C° 0.2 mm 6 mps 749 mmHg 46%
    09:00 +28°C° 0.2 mm 6 mps 749 mmHg 47%
    10:00 +29°C° 0.1 mm 6 mps 749 mmHg 43%
    11:00 +30°C° 0.1 mm 6 mps 749 mmHg 39%
    12:00 +30°C° 0.1 mm 6 mps 749 mmHg 35%
    13:00 +32°C° 0.2 mm 6 mps 749 mmHg 38%
    14:00 +32°C° 0.2 mm 7 mps 749 mmHg 40%
    15:00 +32°C° 0.2 mm 7 mps 749 mmHg 43%
    16:00 +30°C° 0.7 mm 7 mps 749 mmHg 42%
    17:00 +30°C° 0.7 mm 7 mps 749 mmHg 41%
    18:00 +29°C° 0.7 mm 6 mps 749 mmHg 41%
    19:00 +29°C° 0.3 mm 6 mps 749 mmHg 42%
    20:00 +28°C° 0.3 mm 5 mps 749 mmHg 44%
    21:00 +27°C° 0.3 mm 5 mps 749 mmHg 45%
    22:00 +27°C° 0 mm 5 mps 749 mmHg 47%
    23:00 +26°C° 0 mm 4 mps 749 mmHg 50%

    26 August, Monday

    Time Temperature Precipitation Wind Pressure Humidity
    00:00 +26°C° 0 mm 4 mps 749 mmHg 52%
    01:00 +26°C° 0 mm 5 mps 749 mmHg 51%
    02:00 +26°C° 0 mm 5 mps 749 mmHg 49%
    03:00 +26°C° 0 mm 6 mps 749 mmHg 48%
    04:00 +26°C° 0 mm 7 mps 749 mmHg 47%
    05:00 +26°C° 0 mm 8 mps 750 mmHg 45%
    06:00 +26°C° 0 mm 9 mps 750 mmHg 43%
    07:00 +26°C° 0 mm 9 mps 750 mmHg 43%
    08:00 +26°C° 0 mm 9 mps 751 mmHg 42%
    09:00 +26°C° 0 mm 9 mps 751 mmHg 41%
    10:00 +27°C° 0 mm 9 mps 752 mmHg 42%
    11:00 +27°C° 0 mm 8 mps 752 mmHg 42%
    12:00 +28°C° 0 mm 8 mps 752 mmHg 42%
    13:00 +28°C° 0 mm 8 mps 752 mmHg 41%
    14:00 +29°C° 0 mm 7 mps 752 mmHg 40%
    15:00 +30°C° 0 mm 7 mps 752 mmHg 38%
    16:00 +29°C° 0 mm 6 mps 752 mmHg 40%
    17:00 +29°C° 0 mm 6 mps 753 mmHg 42%
    18:00 +28°C° 0 mm 5 mps 753 mmHg 45%
    19:00 +27°C° 0 mm 5 mps 753 mmHg 48%
    20:00 +25°C° 0 mm 4 mps 753 mmHg 51%
    21:00 +24°C° 0 mm 3 mps 754 mmHg 54%
    22:00 +23°C° 0 mm 4 mps 754 mmHg 50%
    23:00 +22°C° 0 mm 5 mps 754 mmHg 46%

    27 August, Tuesday

    Time Temperature Precipitation Wind Pressure Humidity
    00:00 +22°C° 0 mm 6 mps 755 mmHg 42%
    01:00 +21°C° 0 mm 6 mps 755 mmHg 43%
    02:00 +21°C° 0 mm 6 mps 755 mmHg 44%
    03:00 +20°C° 0 mm 6 mps 755 mmHg 45%
    04:00 +20°C° 0 mm 6 mps 755 mmHg 46%
    05:00 +20°C° 0 mm 6 mps 755 mmHg 48%
    06:00 +19°C° 0 mm 6 mps 756 mmHg 49%
    07:00 +21°C° 0 mm 6 mps 756 mmHg 47%
    08:00 +22°C° 0 mm 7 mps 756 mmHg 45%
    09:00 +23°C° 0 mm 7 mps 756 mmHg 42%
    10:00 +26°C° 0 mm 7 mps 756 mmHg 39%
    11:00 +27°C° 0 mm 7 mps 756 mmHg 35%
    12:00 +28°C° 0 mm 7 mps 756 mmHg 32%
    13:00 +29°C° 0 mm 7 mps 756 mmHg 30%
    14:00 +29°C° 0 mm 7 mps 755 mmHg 28%
    15:00 +29°C° 0 mm 7 mps 755 mmHg 27%
    16:00 +29°C° 0 mm 6 mps 755 mmHg 27%
    17:00 +28°C° 0 mm 6 mps 755 mmHg 28%
    18:00 +27°C° 0 mm 5 mps 755 mmHg 29%
    19:00 +26°C° 0 mm 5 mps 755 mmHg 29%
    20:00 +25°C° 0 mm 5 mps 755 mmHg 29%
    21:00 +22°C° 0 mm 5 mps 755 mmHg 29%
    22:00 +22°C° 0 mm 5 mps 755 mmHg 29%
    23:00 +21°C° 0 mm 5 mps 755 mmHg 28%
    Show more